| time (UTC) | temp F | wind direction | speed MPH | gust MPH | rain 1hr in | rain 24hr in | rain mn in | humidity % | barometer mb |
| 20260903062001 | 67 | 250 | 5.0 | 11.0 | 0.00 | 1.32 | 0.34 | 95 | 1014.5 |
| 20260903061002 | 67 | 228 | 3.0 | 7.0 | 0.00 | 1.31 | 0.33 | 95 | 1015.3 |
| 20260903060003 | 67 | 250 | 7.0 | 11.0 | 0.00 | 1.31 | 0.33 | 96 | 1015.4 |
| 20260903055004 | 66 | 250 | 2.0 | 6.0 | 0.00 | 1.31 | 0.33 | 96 | 1015.6 |
| 20260903054005 | 66 | 93 | 2.0 | 3.0 | 0.00 | 1.30 | 0.32 | 95 | 1014.6 |
| 20260903053006 | 66 | 250 | 5.0 | 9.0 | 0.00 | 1.30 | 0.32 | 95 | 1015.2 |
| 20260903051006 | 66 | 295 | 2.0 | 5.0 | 0.00 | 1.30 | 0.32 | 96 | 1015.2 |
| 20260903050006 | 66 | 250 | 7.0 | 11.0 | 0.00 | 1.30 | 0.32 | 96 | 1015.1 |
| 20260903045001 | 66 | 228 | 6.0 | 8.0 | 0.00 | 1.30 | 0.32 | 96 | 1014.9 |
| 20260903044002 | 67 | 138 | 7.0 | 9.0 | 0.00 | 1.30 | 0.32 | 96 | 1014.8 |
| 20260903043004 | 67 | 160 | 4.0 | 7.0 | 0.00 | 1.29 | 0.31 | 96 | 1015.0 |
| 20260903042004 | 67 | 228 | 9.0 | 13.0 | 0.00 | 1.23 | 0.25 | 96 | 1014.7 |
| 20260903041005 | 67 | 205 | 5.0 | 7.0 | 0.00 | 0.98 | 0.00 | 96 | 1015.2 |
| 20260903040008 | 67 | 3 | 0.0 | 1.0 | 0.00 | 0.98 | 0.00 | 94 | 1014.5 |
| 20260903034004 | 67 | 93 | 2.0 | 3.0 | 0.00 | 0.98 | 0.98 | 93 | 1013.9 |
| 20260903032003 | 67 | 138 | 3.0 | 4.0 | 0.00 | 0.98 | 0.98 | 92 | 1013.6 |
| 20260903031005 | 67 | 228 | 9.0 | 12.0 | 0.00 | 0.97 | 0.97 | 92 | 1014.2 |
| 20260903030005 | 67 | 228 | 8.0 | 12.0 | 0.00 | 0.97 | 0.97 | 91 | 1013.7 |
| 20260903024005 | 67 | 250 | 14.0 | 26.0 | 0.00 | 0.76 | 0.76 | 89 | 1017.3 |
| 20260903023006 | 70 | 250 | 15.0 | 26.0 | 0.00 | 0.44 | 0.44 | 87 | 1015.8 |
| 20260903022007 | 72 | 250 | 13.0 | 18.0 | 0.00 | 0.29 | 0.29 | 86 | 1015.5 |
| 20260903021002 | 72 | 228 | 2.0 | 4.0 | 0.00 | 0.28 | 0.28 | 83 | 1014.7 |
| 20260903020003 | 72 | 183 | 2.0 | 3.0 | 0.00 | 0.28 | 0.28 | 84 | 1014.7 |
| 20260903015004 | 72 | 318 | 1.0 | 2.0 | 0.00 | 0.28 | 0.28 | 83 | 1014.1 |
| 20260903014005 | 72 | 205 | 2.0 | 3.0 | 0.00 | 0.28 | 0.28 | 82 | 1014.4 |
| 20260903013007 | 72 | 205 | 0.0 | 0.0 | 0.00 | 0.28 | 0.28 | 82 | 1014.6 |
| 20260903011006 | 73 | 318 | 1.0 | 2.0 | 0.00 | 0.28 | 0.28 | 79 | 1015.2 |
| 20260903010008 | 74 | 318 | 1.0 | 3.0 | 0.00 | 0.28 | 0.28 | 78 | 1015.4 |
| 20260903005002 | 74 | 70 | 2.0 | 3.0 | 0.00 | 0.28 | 0.28 | 76 | 1014.9 |
| 20260903003003 | 76 | 295 | 2.0 | 4.0 | 0.00 | 0.28 | 0.28 | 71 | 1014.6 |
| 20260903002004 | 78 | 318 | 5.0 | 13.0 | 0.00 | 0.28 | 0.28 | 69 | 1014.6 |
| 20260903001005 | 81 | 318 | 7.0 | 22.0 | 0.00 | 0.28 | 0.28 | 66 | 1014.2 |
| 20260903000005 | 81 | 228 | 17.0 | 25.0 | 0.00 | 0.28 | 0.28 | 65 | 1012.0 |
| 20260902235006 | 82 | 228 | 13.0 | 17.0 | 0.00 | 0.28 | 0.28 | 65 | 1012.4 |
| 20260902234007 | 83 | 250 | 10.0 | 17.0 | 0.00 | 0.28 | 0.28 | 66 | 1013.1 |
| 20260902232003 | 84 | 228 | 11.0 | 14.0 | 0.00 | 0.28 | 0.28 | 70 | 1014.1 |
| 20260902231004 | 85 | 228 | 6.0 | 8.0 | 0.00 | 0.28 | 0.28 | 70 | 1013.9 |
| 20260902230006 | 85 | 205 | 8.0 | 11.0 | 0.00 | 0.28 | 0.28 | 69 | 1013.5 |
| 20260902225007 | 85 | 228 | 9.0 | 12.0 | 0.00 | 0.28 | 0.28 | 69 | 1013.7 |
| 20260902224001 | 86 | 228 | 5.0 | 10.0 | 0.00 | 0.28 | 0.28 | 69 | 1013.6 |
| 20260902223002 | 86 | 228 | 4.0 | 7.0 | 0.00 | 0.28 | 0.28 | 68 | 1013.7 |
| 20260902222002 | 87 | 273 | 4.0 | 8.0 | 0.00 | 0.28 | 0.28 | 67 | 1013.6 |
| 20260902221004 | 87 | 205 | 3.0 | 4.0 | 0.00 | 0.28 | 0.28 | 67 | 1013.2 |
| 20260902220004 | 87 | 228 | 8.0 | 14.0 | 0.00 | 0.28 | 0.28 | 66 | 1013.1 |
| 20260902214005 | 88 | 228 | 8.0 | 11.0 | 0.00 | 0.28 | 0.28 | 65 | 1013.3 |
| 20260902213006 | 88 | 205 | 5.0 | 10.0 | 0.00 | 0.28 | 0.28 | 65 | 1013.6 |
| 20260902212007 | 89 | 205 | 3.0 | 6.0 | 0.00 | 0.28 | 0.28 | 65 | 1013.5 |
| 20260902211002 | 88 | 250 | 8.0 | 12.0 | 0.00 | 0.28 | 0.28 | 65 | 1013.4 |
| 20260902210003 | 88 | 250 | 5.0 | 7.0 | 0.00 | 0.28 | 0.28 | 65 | 1013.6 |
| 20260902205004 | 88 | 273 | 9.0 | 14.0 | 0.00 | 0.28 | 0.28 | 64 | 1013.9 |
| 20260902204004 | 88 | 250 | 8.0 | 12.0 | 0.00 | 0.28 | 0.28 | 63 | 1014.2 |
| 20260902203005 | 88 | 250 | 8.0 | 13.0 | 0.00 | 0.28 | 0.28 | 66 | 1014.4 |
| 20260902201006 | 88 | 250 | 6.0 | 13.0 | 0.00 | 0.28 | 0.28 | 66 | 1014.7 |
| 20260902200007 | 88 | 205 | 10.0 | 14.0 | 0.00 | 0.28 | 0.28 | 66 | 1014.7 |
| 20260902195003 | 88 | 273 | 10.0 | 16.0 | 0.00 | 0.28 | 0.28 | 65 | 1014.8 |
| 20260902194003 | 87 | 228 | 10.0 | 16.0 | 0.00 | 0.28 | 0.28 | 65 | 1014.9 |
| 20260902193005 | 87 | 228 | 6.0 | 12.0 | 0.00 | 0.28 | 0.28 | 65 | 1014.8 |
| 20260902192005 | 87 | 228 | 6.0 | 12.0 | 0.00 | 0.28 | 0.28 | 66 | 1015.0 |
| 20260902191006 | 87 | 250 | 8.0 | 13.0 | 0.00 | 0.28 | 0.28 | 68 | 1015.1 |
| 20260902190007 | 86 | 228 | 8.0 | 13.0 | 0.00 | 0.28 | 0.28 | 70 | 1015.1 |
| 20260902185002 | 86 | 228 | 7.0 | 11.0 | 0.00 | 0.28 | 0.28 | 69 | 1014.9 |
| 20260902184003 | 86 | 205 | 5.0 | 7.0 | 0.00 | 0.28 | 0.28 | 70 | 1015.0 |
| 20260902183004 | 85 | 205 | 5.0 | 9.0 | 0.00 | 0.28 | 0.28 | 69 | 1015.1 |
| 20260902182005 | 85 | 183 | 4.0 | 8.0 | 0.00 | 0.28 | 0.28 | 69 | 1015.1 |
| 20260902181005 | 83 | 205 | 4.0 | 6.0 | 0.00 | 0.28 | 0.28 | 73 | 1015.5 |
| 20260902180008 | 83 | 160 | 5.0 | 7.0 | 0.00 | 0.28 | 0.28 | 71 | 1015.7 |
| 20260902175002 | 85 | 160 | 3.0 | 4.0 | 0.00 | 0.28 | 0.28 | 70 | 1015.8 |
| 20260902174003 | 85 | 183 | 4.0 | 6.0 | 0.00 | 0.28 | 0.28 | 71 | 1015.8 |
| 20260902173011 | 82 | 228 | 8.0 | 9.0 | 0.00 | 0.28 | 0.28 | 72 | 1015.9 |
| 20260902172005 | 84 | 250 | 4.0 | 6.0 | 0.00 | 0.28 | 0.28 | 70 | 1016.0 |
| 20260902171006 | 83 | 160 | 2.0 | 3.0 | 0.00 | 0.28 | 0.28 | 71 | 1015.9 |
| 20260902165006 | 84 | 295 | 2.0 | 3.0 | 0.00 | 0.28 | 0.28 | 73 | 1016.0 |
| 20260902164002 | 83 | 318 | 2.0 | 3.0 | 0.00 | 0.28 | 0.28 | 81 | 1016.0 |
| 20260902163003 | 80 | 340 | 2.0 | 3.0 | 0.00 | 0.28 | 0.28 | 83 | 1016.0 |
| 20260902162004 | 80 | 228 | 3.0 | 4.0 | 0.00 | 0.28 | 0.28 | 86 | 1016.0 |
| 20260902161005 | 80 | 318 | 0.0 | 2.0 | 0.00 | 0.28 | 0.28 | 88 | 1016.0 |
| 20260902160009 | 77 | 183 | 2.0 | 4.0 | 0.00 | 0.28 | 0.28 | 92 | 1016.0 |
| 20260902155007 | 74 | 48 | 1.0 | 1.0 | 0.00 | 0.28 | 0.28 | 96 | 1016.2 |
| 20260902154002 | 72 | 183 | 4.0 | 6.0 | 0.00 | 0.28 | 0.28 | 97 | 1016.4 |
| 20260902153003 | 71 | 205 | 1.0 | 2.0 | 0.00 | 0.28 | 0.28 | 97 | 1016.6 |
| 20260902152004 | 70 | 115 | 1.0 | 3.0 | 0.00 | 0.28 | 0.28 | 97 | 1016.7 |
| 20260902151005 | 69 | 273 | 3.0 | 6.0 | 0.00 | 0.27 | 0.27 | 97 | 1016.6 |
| 20260902150005 | 69 | 160 | 5.0 | 6.0 | 0.00 | 0.26 | 0.26 | 97 | 1016.6 |
| 20260902145006 | 69 | 93 | 5.0 | 6.0 | 0.00 | 0.25 | 0.25 | 97 | 1016.8 |
| 20260902144002 | 69 | 115 | 4.0 | 6.0 | 0.00 | 0.24 | 0.24 | 96 | 1017.4 |
| 20260902142002 | 69 | 48 | 5.0 | 7.0 | 0.00 | 0.21 | 0.21 | 96 | 1016.9 |
| 20260902140004 | 69 | 138 | 1.0 | 1.0 | 0.00 | 0.21 | 0.21 | 96 | 1016.4 |
| 20260902135005 | 69 | 318 | 1.0 | 3.0 | 0.00 | 0.21 | 0.21 | 95 | 1016.7 |
| 20260902134006 | 69 | 228 | 5.0 | 7.0 | 0.00 | 0.20 | 0.20 | 95 | 1016.6 |
| 20260902133001 | 69 | 228 | 8.0 | 16.0 | 0.00 | 0.18 | 0.18 | 95 | 1016.6 |
| 20260902132001 | 69 | 273 | 11.0 | 16.0 | 0.00 | 0.11 | 0.11 | 95 | 1017.3 |
| 20260902131003 | 70 | 273 | 5.0 | 7.0 | 0.00 | 0.11 | 0.11 | 94 | 1016.6 |
| 20260902125003 | 70 | 228 | 5.0 | 9.0 | 0.00 | 0.11 | 0.11 | 94 | 1016.7 |
| 20260902124004 | 70 | 228 | 8.0 | 12.0 | 0.00 | 0.09 | 0.09 | 95 | 1016.4 |
| 20260902123005 | 70 | 228 | 8.0 | 11.0 | 0.00 | 0.09 | 0.09 | 95 | 1015.9 |
| 20260902122006 | 70 | 250 | 8.0 | 11.0 | 0.00 | 0.08 | 0.08 | 96 | 1016.1 |
| 20260902121001 | 70 | 250 | 5.0 | 9.0 | 0.00 | 0.07 | 0.07 | 96 | 1016.2 |
| 20260902120001 | 71 | 273 | 5.0 | 8.0 | 0.00 | 0.06 | 0.06 | 97 | 1016.3 |
| 20260902115003 | 71 | 250 | 9.0 | 11.0 | 0.00 | 0.04 | 0.04 | 97 | 1016.8 |
| 20260902114003 | 71 | 318 | 3.0 | 5.0 | 0.00 | 0.02 | 0.02 | 97 | 1017.2 |
| 20260902113004 | 71 | 295 | 2.0 | 6.0 | 0.00 | 0.01 | 0.01 | 96 | 1016.9 |
| 20260902112004 | 70 | 318 | 1.0 | 4.0 | 0.00 | 0.00 | 0.00 | 96 | 1016.2 |
| 20260902111005 | 70 | 295 | 2.0 | 3.0 | 0.00 | 0.00 | 0.00 | 96 | 1016.0 |
| 20260902110008 | 70 | 70 | 2.0 | 3.0 | 0.00 | 0.00 | 0.00 | 96 | 1015.4 |
| 20260902105001 | 70 | 250 | 0.0 | 1.0 | 0.00 | 0.00 | 0.00 | 96 | 1015.7 |
| 20260902103006 | 70 | 138 | 2.0 | 4.0 | 0.00 | 0.00 | 0.00 | 96 | 1015.2 |
| 20260902102001 | 69 | 340 | 2.0 | 2.0 | 0.00 | 0.00 | 0.00 | 96 | 1015.3 |
| 20260902101002 | 69 | 138 | 2.0 | 3.0 | 0.00 | 0.00 | 0.00 | 96 | 1015.3 |
| 20260902095002 | 69 | 138 | 3.0 | 4.0 | 0.00 | 0.00 | 0.00 | 95 | 1015.2 |
| 20260902093002 | 68 | 160 | 2.0 | 3.0 | 0.00 | 0.00 | 0.00 | 95 | 1015.2 |
| 20260902092003 | 68 | 70 | 1.0 | 2.0 | 0.00 | 0.00 | 0.00 | 94 | 1015.3 |
| 20260902091004 | 69 | 93 | 1.0 | 2.0 | 0.00 | 0.00 | 0.00 | 94 | 1015.7 |
| 20260902090005 | 69 | 138 | 2.0 | 2.0 | 0.00 | 0.00 | 0.00 | 94 | 1015.7 |
| 20260902085005 | 69 | 48 | 3.0 | 3.0 | 0.00 | 0.00 | 0.00 | 94 | 1015.8 |
| 20260902084006 | 69 | 93 | 2.0 | 3.0 | 0.00 | 0.00 | 0.00 | 93 | 1015.9 |
| 20260902082006 | 70 | 183 | 2.0 | 4.0 | 0.00 | 0.00 | 0.00 | 92 | 1016.0 |
| 20260902080006 | 70 | 160 | 2.0 | 3.0 | 0.00 | 0.00 | 0.00 | 92 | 1015.9 |
| 20260902075001 | 70 | 138 | 5.0 | 6.0 | 0.00 | 0.00 | 0.00 | 92 | 1015.9 |
| 20260902074002 | 70 | 115 | 2.0 | 3.0 | 0.00 | 0.00 | 0.00 | 91 | 1016.0 |
| 20260902073003 | 70 | 160 | 2.0 | 3.0 | 0.00 | 0.00 | 0.00 | 91 | 1016.0 |
| 20260902072005 | 70 | 160 | 1.0 | 3.0 | 0.00 | 0.00 | 0.00 | 90 | 1016.0 |
| 20260902071005 | 70 | 70 | 3.0 | 4.0 | 0.00 | 0.00 | 0.00 | 89 | 1015.9 |
| 20260902065005 | 71 | 138 | 2.0 | 3.0 | 0.00 | 0.00 | 0.00 | 88 | 1016.1 |
| 20260902064006 | 72 | 115 | 3.0 | 6.0 | 0.00 | 0.00 | 0.00 | 87 | 1016.0 |
| 20260902063001 | 72 | 205 | 4.0 | 6.0 | 0.00 | 0.00 | 0.00 | 87 | 1016.3 |